Weather History for Erzurum, Turkey

Change the Weather History Date:

Friday, May 3, 2013

  Actual Average Record
Temperature  
Mean Temperature 50 °F -  
Max Temperature 68 °F 63 °F 68 °F (2003)
Min Temperature 33 °F 41 °F 28 °F (1998)
Degree Days  
Heating Degree Days 14    
Moisture  
Dew Point 27 °F    
Average Humidity 38    
Maximum Humidity 75    
Minimum Humidity 10    
Precipitation  
Precipitation 0.00 in 0.09 in - ()
Sea Level Pressure  
Sea Level Pressure 30.10 in    
Wind  
Wind Speed 9 mph ()    
Max Wind Speed 22 mph    
Max Gust Speed -    
Visibility 6.9 miles    
Events      
Averages and records for this station are not official NWS values.
T = Trace of Precipitation, MM = Missing Value Source: Averaged Metar Reports

Daily Weather History Graph

Daily Weather History Graph

Search for Another Location

Airport:

Trip Planner

Search our weather history database for the weather conditions in past years. The results will help you decide how hot, cold, wet, or windy it might be!

Date:

Astronomy

May. 03, 2013 Rise Set
Actual Time 5:13 AM EEST 7:11 PM EEST
Civil Twilight 4:43 AM EEST 7:41 PM EEST
Nautical Twilight 4:07 AM EEST 8:17 PM EEST
Astronomical Twilight 3:28 AM EEST 8:56 PM EEST
Moon 1:24 AM EEST (5/3) 12:43 PM EEST (5/3)
Length of Visible Light 14h 57m
Length of Day
13h 58m
Last Quarter, 40% of the Moon is Illuminated
May 3
Last Quarter
May 10
New
May 18
First Quarter
May 25
Full
May 31
Last Quarter

Hourly Weather History & Observations

Time (EEST) Temp. Windchill Dew Point Humidity Pressure Visibility Wind Dir Wind Speed Gust Speed Precip Events Conditions
12:20 AM 50.0 °F - 24.8 °F 37% 30.12 in - ESE 9.2 mph - N/A   Clear
12:50 AM 44.6 °F 43.1 °F 28.4 °F 53% 30.12 in - Variable 3.5 mph - N/A   Clear
1:20 AM 44.6 °F 40.7 °F 28.4 °F 53% 30.12 in - NE 6.9 mph - N/A   Clear
1:50 AM 46.4 °F 44.3 °F 28.4 °F 50% 30.12 in - ESE 4.6 mph - N/A   Clear
2:20 AM 42.8 °F - 28.4 °F 57% 30.12 in - Variable 2.3 mph - N/A   Clear
3:00 AM 38 °F - 29 °F 58%  in 12 mi West 4.6 mph - -  
3:20 AM 41.0 °F 38.0 °F 28.4 °F 61% 30.09 in - SSW 4.6 mph - N/A   Clear
3:50 AM 37.4 °F - 28.4 °F 70% 30.09 in - Variable 2.3 mph - N/A   Clear
4:20 AM 37.4 °F 33.8 °F 28.4 °F 70% 30.12 in - SW 4.6 mph - N/A   Clear
4:50 AM 33.8 °F 30.8 °F 26.6 °F 75% 30.12 in - West 3.5 mph - N/A   Clear
5:20 AM 35.6 °F 32.8 °F 28.4 °F 75% 30.12 in - SSW 3.5 mph - N/A   Clear
5:50 AM 35.6 °F 32.8 °F 28.4 °F 75% 30.12 in - WSW 3.5 mph - N/A   Clear
6:20 AM 39.2 °F 37.0 °F 30.2 °F 70% 30.12 in - WSW 3.5 mph - N/A   Clear
6:50 AM 42.8 °F - 32.0 °F 66% 30.12 in - Variable 1.2 mph - N/A   Clear
7:20 AM 48.2 °F - 32.0 °F 54% 30.12 in - Calm Calm - N/A   Clear
7:50 AM 55.4 °F - 33.8 °F 44% 30.12 in - East 11.5 mph - N/A   Clear
8:20 AM 55.4 °F - 33.8 °F 44% 30.12 in - East 15.0 mph - N/A   Clear
8:50 AM 57.2 °F - 33.8 °F 41% 30.12 in - East 13.8 mph - N/A   Clear
9:00 AM 56 °F - 34 °F 31%  in 12 mi East 13.8 mph - -  
9:20 AM 57.2 °F - 32.0 °F 38% 30.12 in - East 16.1 mph - N/A   Clear
9:50 AM 59.0 °F - 32.0 °F 36% 30.12 in - East 18.4 mph - N/A   Clear
10:20 AM 59.0 °F - 32.0 °F 36% 30.12 in 6.2 mi East 20.7 mph - N/A   Partly Cloudy
10:50 AM 62.6 °F - 35.6 °F 37% 30.12 in 6.2 mi ENE 18.4 mph - N/A   Partly Cloudy
11:20 AM 62.6 °F - 26.6 °F 26% 30.12 in 6.2 mi ENE 21.9 mph - N/A   Partly Cloudy
11:50 AM 64.4 °F - 23.0 °F 21% 30.12 in 6.2 mi ENE 20.7 mph - N/A   Partly Cloudy
12:20 PM 64.4 °F - 28.4 °F 26% 30.09 in 6.2 mi ENE 17.3 mph - N/A   Partly Cloudy
12:50 PM 66.2 °F - 26.6 °F 23% 30.09 in 6.2 mi ENE 15.0 mph - N/A   Partly Cloudy
1:20 PM 66.2 °F - 19.4 °F 17% 30.09 in 6.2 mi ENE 16.1 mph - N/A   Partly Cloudy
1:50 PM 66.2 °F - 28.4 °F 24% 30.09 in 6.2 mi ENE 15.0 mph - N/A   Partly Cloudy
2:20 PM 66.2 °F - 23.0 °F 19% 30.09 in 6.2 mi ENE 15.0 mph - N/A   Partly Cloudy
2:50 PM 68.0 °F - 23.0 °F 18% 30.06 in 6.2 mi NE 13.8 mph - N/A   Partly Cloudy
3:00 PM 68 °F - 24 °F 10%  in 12 mi NE 13.8 mph - -   Scattered Clouds
3:20 PM 68.0 °F - 24.8 °F 20% 30.06 in 6.2 mi ENE 16.1 mph - N/A   Partly Cloudy
3:50 PM 68.0 °F - 30.2 °F 24% 30.06 in 6.2 mi ENE 13.8 mph - N/A   Partly Cloudy
4:20 PM 68.0 °F - 32.0 °F 26% 30.06 in 6.2 mi ENE 12.7 mph - N/A   Partly Cloudy
4:50 PM 68.0 °F - 30.2 °F 24% 30.06 in 6.2 mi ENE 11.5 mph - N/A   Partly Cloudy
5:20 PM 66.2 °F - 28.4 °F 24% 30.06 in 6.2 mi East 12.7 mph - N/A   Partly Cloudy
5:50 PM 66.2 °F - 28.4 °F 24% 30.06 in 6.2 mi ENE 12.7 mph - N/A   Partly Cloudy
6:20 PM 64.4 °F - 30.2 °F 28% 30.06 in 6.2 mi East 8.1 mph - N/A   Partly Cloudy
6:50 PM 60.8 °F - 32.0 °F 34% 30.06 in 6.2 mi East 8.1 mph - N/A   Partly Cloudy
7:20 PM 59.0 °F - 28.4 °F 31% 30.09 in 6.2 mi East 12.7 mph - N/A   Partly Cloudy
7:50 PM 57.2 °F - 26.6 °F 31% 30.09 in 6.2 mi ESE 11.5 mph - N/A   Partly Cloudy
8:20 PM 55.4 °F - 26.6 °F 33% 30.09 in 6.2 mi East 8.1 mph - N/A   Partly Cloudy
8:50 PM 55.4 °F - 23.0 °F 29% 30.12 in 6.2 mi East 10.4 mph - N/A   Partly Cloudy
9:20 PM 51.8 °F - 24.8 °F 35% 30.12 in 6.2 mi NE 9.2 mph - N/A   Partly Cloudy
9:50 PM 55.4 °F - 15.8 °F 21% 30.12 in - ENE 11.5 mph - N/A   Clear
10:20 PM 55.4 °F - 15.8 °F 21% 30.12 in - East 11.5 mph - N/A   Clear
10:50 PM 53.6 °F - 15.8 °F 22% 30.12 in - East 10.4 mph - N/A   Clear
11:20 PM 53.6 °F - 15.8 °F 22% 30.12 in - East 10.4 mph - N/A   Clear
11:50 PM 50.0 °F - 19.4 °F 30% 30.12 in - NE 13.8 mph - N/A   Clear